Hourly Data Report for January 02, 2003

TORONTO CITY
ONTARIO

43°40'00.000" N
79°24'00.000" W
112.50 m
6158355
71508
XTO

Download Data

Hourly Data (January 2003)
Hourly Data Report for January 2, 2003
TIME
LST
Temp Definition
°C
Dew Point Definition
°C
Rel Hum Definition
%
Precip. Amount Definition
mm

Wind Dir Definition
10's deg

Wind Spd Definition
km/h
Visibility Definition
km
Stn Press Definition
kPa
Hmdx Definition


Wind Chill Definition


Weather Definition


00:00 -6.5 -13.7 57     0 LegendMM 100.43     LegendNANA
01:00
02:00 -7.2 -13.5 61     0 LegendMM 100.59     LegendNANA
03:00 -7.7 -13.4 64     0 LegendMM 100.60     LegendNANA
04:00 -8.3 -14.2 62     0 LegendMM 100.64     LegendNANA
05:00
06:00 -9.1 -14.7 64     0 LegendMM 100.66     LegendNANA
07:00 -9.1 -14.4 65     0 LegendMM 100.79     LegendNANA
08:00 -9.1 -14.7 64     0 LegendMM 100.82     LegendNANA
09:00 -9.1 -14.6 64     0 LegendMM 100.84     LegendNANA
10:00 -8.7 -14.4 63     0 LegendMM 100.90     LegendNANA
11:00 -8.4 -13.9 64     0 LegendMM 100.82     LegendNANA
12:00 -7.5 -13.6 62     0 LegendMM 100.73     LegendNANA
13:00 -6.9 -13.0 62     0 LegendMM 100.68     LegendNANA
14:00 -6.2 -12.6 60     0 LegendMM 100.69     LegendNANA
15:00 -5.8 -12.2 61     0 LegendMM 100.66     LegendNANA
16:00 -5.2 -11.4 62     0 LegendMM 100.62     LegendNANA
17:00 -4.7 -11.0 61     0 LegendMM 100.57     LegendNANA
18:00 -4.6 -10.9 61     0 LegendMM 100.60     LegendNANA
19:00
20:00 -4.1 -8.3 73     0 LegendMM 100.47     LegendNANA
21:00 -5.0 -5.9 93     0 LegendMM 100.43     LegendNANA
22:00 -6.5 -7.4 93     0 LegendMM 100.33     LegendNANA
23:00 -6.0 -7.0 93     0 LegendMM 100.29     LegendNANA

Notes on Data Quality.

Legend

  • E = Estimated
  • M = Missing
  • NA = Not Available*
  • [empty] = Indicates an unobserved value
Date modified: